Location: Noordwijk
(52.2400°N, 4.4500°E)
Time: 21:09:43
(UTC+00:00)

AO-7 - Pass Details

Date: 09 December 2022
Orbit: 1440 x 1459 km, 101.9° (Epoch: 31 January)

Event Time Altitude Azimuth Distance (km) Brightness Sun altitude
Rises 04:32:56 0° 20° (NNE) 4,548 ? -27.1°
Reaches altitude 10° 04:35:45 10° 23° (NNE) 3,568 ? -26.7°
Maximum altitude 04:44:04 71° 107° (ESE) 1,518 ? -25.4°
Drops below altitude 10° 04:52:22 10° 192° (SSW) 3,560 ? -24.2°
Sets 04:55:09 0° 194° (SSW) 4,537 ? -23.7°
